| time (UTC) | temp F | wind direction | speed MPH | gust MPH | rain 1hr in | rain 24hr in | rain mn in | humidity % | barometer mb |
| 20260904015424 | 82 | 143 | 4.0 | 12.0 | 0.00 | 0.00 | 0.00 | 69 | 1008.9 |
| 20260904014503 | 82 | 141 | 4.0 | 12.0 | 0.00 | 0.00 | 0.00 | 69 | 1008.7 |
| 20260904013604 | 83 | 145 | 5.0 | 12.0 | 0.00 | 0.00 | 0.00 | 69 | 1008.6 |
| 20260904012725 | 83 | 147 | 5.0 | 11.0 | 0.00 | 0.00 | 0.00 | 68 | 1008.4 |
| 20260904011825 | 83 | 148 | 6.0 | 17.0 | 0.00 | 0.00 | 0.00 | 68 | 1008.3 |
| 20260904010924 | 83 | 144 | 5.0 | 12.0 | 0.00 | 0.00 | 0.00 | 68 | 1008.3 |
| 20260904010004 | 84 | 142 | 6.0 | 12.0 | 0.00 | 0.00 | 0.00 | 68 | 1008.3 |
| 20260904005404 | 84 | 143 | 5.0 | 15.0 | 0.00 | 0.00 | 0.00 | 67 | 1008.4 |
| 20260904004504 | 84 | 146 | 5.0 | 11.0 | 0.00 | 0.00 | 0.00 | 66 | 1008.4 |
| 20260904003604 | 85 | 154 | 6.0 | 12.0 | 0.00 | 0.00 | 0.00 | 64 | 1008.4 |
| 20260904002704 | 86 | 154 | 5.0 | 12.0 | 0.00 | 0.00 | 0.00 | 62 | 1008.4 |
| 20260904001825 | 86 | 150 | 5.0 | 13.0 | 0.00 | 0.00 | 0.00 | 61 | 1008.3 |
| 20260904000904 | 87 | 155 | 5.0 | 13.0 | 0.00 | 0.00 | 0.00 | 60 | 1008.2 |
| 20260904000004 | 88 | 150 | 5.0 | 14.0 | 0.00 | 0.00 | 0.00 | 61 | 1008.1 |
| 20260903235403 | 88 | 154 | 6.0 | 15.0 | 0.00 | 0.00 | 0.00 | 61 | 1008.0 |
| 20260903234503 | 89 | 142 | 6.0 | 15.0 | 0.00 | 0.00 | 0.00 | 61 | 1007.9 |
| 20260903233603 | 90 | 148 | 5.0 | 12.0 | 0.00 | 0.00 | 0.00 | 61 | 1007.8 |
| 20260903232703 | 90 | 145 | 5.0 | 12.0 | 0.00 | 0.00 | 0.00 | 61 | 1007.7 |
| 20260903231803 | 90 | 140 | 5.0 | 16.0 | 0.00 | 0.00 | 0.00 | 61 | 1007.8 |
| 20260903230903 | 90 | 141 | 5.0 | 12.0 | 0.00 | 0.00 | 0.00 | 62 | 1007.7 |
| 20260903230003 | 90 | 147 | 6.0 | 12.0 | 0.00 | 0.00 | 0.00 | 61 | 1007.7 |
| 20260903225424 | 90 | 145 | 5.0 | 11.0 | 0.00 | 0.00 | 0.00 | 61 | 1007.6 |
| 20260903224524 | 90 | 143 | 4.0 | 11.0 | 0.00 | 0.00 | 0.00 | 61 | 1007.5 |
| 20260903223603 | 91 | 145 | 4.0 | 10.0 | 0.00 | 0.00 | 0.00 | 61 | 1007.5 |
| 20260903222703 | 91 | 139 | 5.0 | 12.0 | 0.00 | 0.00 | 0.00 | 60 | 1007.6 |
| 20260903221804 | 92 | 136 | 5.0 | 13.0 | 0.00 | 0.00 | 0.00 | 59 | 1007.6 |
| 20260903220903 | 93 | 139 | 6.0 | 16.0 | 0.00 | 0.00 | 0.00 | 60 | 1007.6 |
| 20260903220003 | 93 | 139 | 5.0 | 16.0 | 0.00 | 0.00 | 0.00 | 61 | 1007.6 |
| 20260903215403 | 92 | 140 | 5.0 | 14.0 | 0.00 | 0.00 | 0.00 | 62 | 1007.6 |
| 20260903214525 | 92 | 142 | 6.0 | 14.0 | 0.00 | 0.00 | 0.00 | 61 | 1007.6 |
| 20260903213603 | 92 | 144 | 5.0 | 10.0 | 0.00 | 0.00 | 0.00 | 62 | 1007.7 |
| 20260903212703 | 91 | 150 | 6.0 | 12.0 | 0.00 | 0.00 | 0.00 | 64 | 1007.7 |
| 20260903211803 | 91 | 142 | 5.0 | 11.0 | 0.00 | 0.00 | 0.00 | 63 | 1007.8 |
| 20260903210904 | 91 | 145 | 5.0 | 12.0 | 0.00 | 0.00 | 0.00 | 64 | 1007.8 |
| 20260903210004 | 90 | 151 | 5.0 | 12.0 | 0.00 | 0.00 | 0.00 | 66 | 1008.0 |
| 20260903205425 | 90 | 151 | 6.0 | 12.0 | 0.00 | 0.00 | 0.00 | 65 | 1008.0 |
| 20260903204525 | 90 | 145 | 7.0 | 12.0 | 0.00 | 0.00 | 0.00 | 66 | 1008.1 |
| 20260903203603 | 89 | 152 | 5.0 | 13.0 | 0.00 | 0.00 | 0.00 | 68 | 1008.3 |
| 20260903202704 | 89 | 154 | 6.0 | 14.0 | 0.00 | 0.00 | 0.00 | 68 | 1008.3 |
| 20260903201803 | 88 | 151 | 4.0 | 13.0 | 0.00 | 0.00 | 0.00 | 69 | 1008.4 |
| 20260903200904 | 87 | 160 | 7.0 | 17.0 | 0.00 | 0.00 | 0.00 | 71 | 1008.4 |
| 20260903200004 | 87 | 148 | 7.0 | 17.0 | 0.00 | 0.00 | 0.00 | 70 | 1008.5 |
| 20260903195424 | 87 | 151 | 7.0 | 16.0 | 0.00 | 0.00 | 0.00 | 70 | 1008.6 |
| 20260903194503 | 87 | 157 | 6.0 | 14.0 | 0.00 | 0.00 | 0.00 | 71 | 1008.7 |
| 20260903193603 | 87 | 154 | 7.0 | 16.0 | 0.00 | 0.00 | 0.00 | 71 | 1008.8 |
| 20260903192703 | 87 | 159 | 7.0 | 17.0 | 0.00 | 0.00 | 0.00 | 71 | 1008.9 |
| 20260903191804 | 87 | 165 | 6.0 | 14.0 | 0.00 | 0.00 | 0.00 | 71 | 1009.1 |
| 20260903190904 | 87 | 162 | 7.0 | 19.0 | 0.00 | 0.00 | 0.00 | 73 | 1009.3 |
| 20260903190003 | 86 | 168 | 7.0 | 15.0 | 0.00 | 0.00 | 0.00 | 73 | 1009.4 |
| 20260903185403 | 86 | 164 | 8.0 | 18.0 | 0.00 | 0.00 | 0.00 | 73 | 1009.5 |
| 20260903184503 | 86 | 157 | 8.0 | 18.0 | 0.00 | 0.00 | 0.00 | 73 | 1009.6 |
| 20260903183603 | 86 | 154 | 8.0 | 17.0 | 0.00 | 0.00 | 0.00 | 74 | 1009.7 |
| 20260903182725 | 85 | 161 | 7.0 | 19.0 | 0.00 | 0.00 | 0.00 | 75 | 1009.9 |
| 20260903181803 | 85 | 164 | 7.0 | 16.0 | 0.00 | 0.00 | 0.00 | 76 | 1010.1 |
| 20260903180904 | 84 | 157 | 7.0 | 14.0 | 0.00 | 0.00 | 0.00 | 76 | 1010.1 |
| 20260903180024 | 84 | 160 | 7.0 | 15.0 | 0.00 | 0.00 | 0.00 | 76 | 1010.2 |
| 20260903175403 | 84 | 155 | 6.0 | 16.0 | 0.00 | 0.00 | 0.00 | 77 | 1010.3 |
| 20260903174504 | 84 | 162 | 7.0 | 15.0 | 0.00 | 0.00 | 0.00 | 76 | 1010.5 |
| 20260903173603 | 84 | 159 | 7.0 | 15.0 | 0.00 | 0.00 | 0.00 | 76 | 1010.5 |
| 20260903172703 | 84 | 155 | 7.0 | 15.0 | 0.00 | 0.00 | 0.00 | 75 | 1010.6 |
| 20260903171804 | 85 | 156 | 7.0 | 18.0 | 0.00 | 0.00 | 0.00 | 75 | 1010.7 |
| 20260903170924 | 85 | 148 | 7.0 | 16.0 | 0.00 | 0.00 | 0.00 | 75 | 1010.7 |
| 20260903170025 | 85 | 157 | 6.0 | 15.0 | 0.00 | 0.00 | 0.00 | 75 | 1010.6 |
| 20260903165404 | 85 | 160 | 7.0 | 15.0 | 0.00 | 0.00 | 0.00 | 75 | 1010.6 |
| 20260903164525 | 85 | 163 | 6.0 | 15.0 | 0.00 | 0.00 | 0.00 | 75 | 1010.6 |
| 20260903163604 | 85 | 168 | 6.0 | 14.0 | 0.00 | 0.00 | 0.00 | 74 | 1010.5 |
| 20260903162704 | 85 | 163 | 7.0 | 15.0 | 0.00 | 0.00 | 0.00 | 74 | 1010.5 |
| 20260903161825 | 85 | 166 | 6.0 | 16.0 | 0.00 | 0.00 | 0.00 | 74 | 1010.5 |
| 20260903160903 | 85 | 165 | 7.0 | 12.0 | 0.00 | 0.00 | 0.00 | 75 | 1010.5 |
| 20260903160003 | 84 | 166 | 6.0 | 14.0 | 0.00 | 0.00 | 0.00 | 76 | 1010.4 |
| 20260903155424 | 84 | 162 | 6.0 | 13.0 | 0.00 | 0.00 | 0.00 | 77 | 1010.3 |
| 20260903154503 | 84 | 163 | 6.0 | 12.0 | 0.00 | 0.00 | 0.00 | 77 | 1010.4 |
| 20260903153624 | 84 | 163 | 6.0 | 14.0 | 0.00 | 0.00 | 0.00 | 77 | 1010.4 |
| 20260903152703 | 84 | 160 | 6.0 | 14.0 | 0.00 | 0.00 | 0.00 | 78 | 1010.4 |
| 20260903151803 | 84 | 171 | 6.0 | 13.0 | 0.00 | 0.00 | 0.00 | 78 | 1010.3 |
| 20260903150903 | 84 | 167 | 6.0 | 15.0 | 0.00 | 0.00 | 0.00 | 77 | 1010.3 |
| 20260903150003 | 85 | 170 | 6.0 | 16.0 | 0.00 | 0.00 | 0.00 | 77 | 1010.3 |
| 20260903145404 | 84 | 170 | 5.0 | 16.0 | 0.00 | 0.00 | 0.00 | 78 | 1010.2 |
| 20260903144503 | 84 | 164 | 5.0 | 12.0 | 0.00 | 0.00 | 0.00 | 79 | 1010.2 |
| 20260903143604 | 83 | 169 | 6.0 | 14.0 | 0.00 | 0.00 | 0.00 | 81 | 1010.2 |
| 20260903142703 | 82 | 157 | 5.0 | 12.0 | 0.00 | 0.00 | 0.00 | 81 | 1010.1 |
| 20260903141803 | 82 | 155 | 5.0 | 12.0 | 0.00 | 0.00 | 0.00 | 82 | 1010.2 |
| 20260903140903 | 81 | 160 | 4.0 | 11.0 | 0.00 | 0.00 | 0.00 | 83 | 1010.2 |
| 20260903140003 | 80 | 152 | 4.0 | 9.0 | 0.00 | 0.00 | 0.00 | 84 | 1010.2 |
| 20260903135403 | 80 | 151 | 4.0 | 9.0 | 0.00 | 0.00 | 0.00 | 85 | 1010.3 |
| 20260903134503 | 79 | 153 | 3.0 | 7.0 | 0.00 | 0.00 | 0.00 | 86 | 1010.1 |
| 20260903133604 | 78 | 154 | 2.0 | 7.0 | 0.00 | 0.00 | 0.00 | 87 | 1010.1 |
| 20260903132703 | 77 | 142 | 2.0 | 4.0 | 0.00 | 0.00 | 0.00 | 87 | 1010.1 |
| 20260903131824 | 77 | 142 | 1.0 | 4.0 | 0.00 | 0.00 | 0.00 | 88 | 1010.2 |
| 20260903130904 | 76 | 148 | 2.0 | 4.0 | 0.00 | 0.00 | 0.00 | 88 | 1010.2 |
| 20260903130003 | 76 | 145 | 2.0 | 6.0 | 0.00 | 0.00 | 0.00 | 88 | 1010.1 |
| 20260903125404 | 76 | 144 | 2.0 | 6.0 | 0.00 | 0.00 | 0.00 | 89 | 1010.1 |
| 20260903124503 | 76 | 150 | 1.0 | 3.0 | 0.00 | 0.00 | 0.00 | 88 | 1010.0 |
| 20260903123604 | 75 | 154 | 0.0 | 2.0 | 0.00 | 0.00 | 0.00 | 88 | 1010.0 |
| 20260903122703 | 75 | 0 | 0.0 | 0.0 | 0.00 | 0.00 | 0.00 | 88 | 1009.9 |
| 20260903121804 | 75 | 162 | 0.0 | 2.0 | 0.00 | 0.00 | 0.00 | 88 | 1009.9 |
| 20260903120903 | 75 | 138 | 0.0 | 2.0 | 0.00 | 0.00 | 0.00 | 88 | 1009.8 |
| 20260903120003 | 75 | 0 | 0.0 | 0.0 | 0.00 | 0.00 | 0.00 | 88 | 1009.8 |
| 20260903115404 | 75 | 67 | 0.0 | 1.0 | 0.00 | 0.00 | 0.00 | 88 | 1009.9 |
| 20260903114503 | 75 | 84 | 0.0 | 1.0 | 0.00 | 0.00 | 0.00 | 87 | 1009.8 |
| 20260903113603 | 75 | 151 | 0.0 | 2.0 | 0.00 | 0.00 | 0.00 | 87 | 1009.8 |
| 20260903112703 | 76 | 151 | 1.0 | 2.0 | 0.00 | 0.00 | 0.00 | 87 | 1009.6 |
| 20260903111803 | 76 | 154 | 1.0 | 4.0 | 0.00 | 0.00 | 0.00 | 87 | 1009.7 |
| 20260903110904 | 76 | 156 | 1.0 | 4.0 | 0.00 | 0.00 | 0.00 | 87 | 1009.7 |
| 20260903110003 | 76 | 128 | 0.0 | 3.0 | 0.00 | 0.00 | 0.00 | 87 | 1009.6 |
| 20260903105403 | 76 | 149 | 0.0 | 4.0 | 0.00 | 0.00 | 0.00 | 87 | 1009.6 |
| 20260903104504 | 76 | 151 | 0.0 | 4.0 | 0.00 | 0.00 | 0.00 | 86 | 1009.5 |
| 20260903103603 | 76 | 142 | 1.0 | 4.0 | 0.00 | 0.00 | 0.00 | 86 | 1009.6 |
| 20260903102724 | 76 | 135 | 0.0 | 3.0 | 0.00 | 0.00 | 0.00 | 86 | 1009.6 |
| 20260903101824 | 76 | 120 | 1.0 | 4.0 | 0.00 | 0.00 | 0.00 | 86 | 1009.6 |
| 20260903100903 | 76 | 140 | 0.0 | 2.0 | 0.00 | 0.00 | 0.00 | 86 | 1009.6 |
| 20260903100024 | 76 | 0 | 0.0 | 0.0 | 0.00 | 0.00 | 0.00 | 85 | 1009.5 |
| 20260903095424 | 76 | 0 | 0.0 | 0.0 | 0.00 | 0.00 | 0.00 | 84 | 1009.6 |
| 20260903094503 | 76 | 0 | 0.0 | 0.0 | 0.00 | 0.00 | 0.00 | 84 | 1009.6 |
| 20260903093624 | 76 | 0 | 0.0 | 0.0 | 0.00 | 0.00 | 0.00 | 84 | 1009.6 |
| 20260903092703 | 77 | 161 | 0.0 | 2.0 | 0.00 | 0.00 | 0.00 | 84 | 1009.7 |
| 20260903091803 | 77 | 161 | 0.0 | 2.0 | 0.00 | 0.00 | 0.00 | 84 | 1009.6 |
| 20260903090903 | 77 | 166 | 0.0 | 2.0 | 0.00 | 0.00 | 0.00 | 83 | 1009.6 |
| 20260903090003 | 77 | 0 | 0.0 | 0.0 | 0.00 | 0.00 | 0.00 | 83 | 1009.5 |
| 20260903085403 | 77 | 0 | 0.0 | 0.0 | 0.00 | 0.00 | 0.00 | 83 | 1009.4 |
| 20260903084503 | 77 | 0 | 0.0 | 0.0 | 0.00 | 0.00 | 0.00 | 83 | 1009.4 |
| 20260903083603 | 77 | 0 | 0.0 | 0.0 | 0.00 | 0.00 | 0.00 | 83 | 1009.3 |
| 20260903082703 | 77 | 0 | 0.0 | 0.0 | 0.00 | 0.00 | 0.00 | 83 | 1009.3 |
| 20260903081803 | 77 | 0 | 0.0 | 0.0 | 0.00 | 0.00 | 0.00 | 82 | 1009.4 |
| 20260903080904 | 77 | 0 | 0.0 | 0.0 | 0.00 | 0.00 | 0.00 | 81 | 1009.6 |
| 20260903080003 | 77 | 0 | 0.0 | 0.0 | 0.00 | 0.00 | 0.00 | 81 | 1009.6 |
| 20260903075403 | 77 | 0 | 0.0 | 0.0 | 0.00 | 0.00 | 0.00 | 80 | 1009.6 |
| 20260903074503 | 77 | 0 | 0.0 | 0.0 | 0.00 | 0.00 | 0.00 | 80 | 1009.5 |
| 20260903073604 | 78 | 0 | 0.0 | 0.0 | 0.00 | 0.00 | 0.00 | 79 | 1009.6 |
| 20260903072703 | 78 | 0 | 0.0 | 0.0 | 0.00 | 0.00 | 0.00 | 79 | 1009.6 |
| 20260903071803 | 78 | 0 | 0.0 | 0.0 | 0.00 | 0.00 | 0.00 | 80 | 1009.7 |
| 20260903070903 | 78 | 0 | 0.0 | 0.0 | 0.00 | 0.00 | 0.00 | 79 | 1009.7 |
| 20260903070004 | 78 | 189 | 0.0 | 3.0 | 0.00 | 0.00 | 0.00 | 79 | 1009.8 |
| 20260903065424 | 78 | 188 | 0.0 | 2.0 | 0.00 | 0.00 | 0.00 | 79 | 1009.8 |
| 20260903064503 | 78 | 178 | 0.0 | 2.0 | 0.00 | 0.00 | 0.00 | 79 | 1009.7 |
| 20260903063624 | 78 | 176 | 0.0 | 4.0 | 0.00 | 0.00 | 0.00 | 78 | 1009.8 |
| 20260903062703 | 79 | 165 | 1.0 | 5.0 | 0.00 | 0.00 | 0.00 | 78 | 1009.9 |
| 20260903061803 | 79 | 149 | 1.0 | 4.0 | 0.00 | 0.00 | 0.00 | 77 | 1010.0 |
| 20260903060924 | 79 | 146 | 2.0 | 6.0 | 0.00 | 0.00 | 0.00 | 77 | 1010.0 |
| 20260903060003 | 79 | 153 | 2.0 | 7.0 | 0.00 | 0.00 | 0.00 | 76 | 1010.0 |
| 20260903055403 | 79 | 150 | 2.0 | 6.0 | 0.00 | 0.00 | 0.00 | 76 | 1010.1 |
| 20260903054524 | 80 | 142 | 1.0 | 4.0 | 0.00 | 0.00 | 0.00 | 75 | 1010.1 |
| 20260903053603 | 80 | 0 | 0.0 | 0.0 | 0.00 | 0.00 | 0.00 | 74 | 1010.3 |
| 20260903052704 | 80 | 0 | 0.0 | 0.0 | 0.00 | 0.00 | 0.00 | 73 | 1010.3 |
| 20260903051824 | 80 | 0 | 0.0 | 0.0 | 0.00 | 0.00 | 0.00 | 72 | 1010.2 |
| 20260903050903 | 81 | 140 | 1.0 | 4.0 | 0.00 | 0.00 | 0.00 | 72 | 1010.2 |
| 20260903050004 | 81 | 107 | 0.0 | 2.0 | 0.00 | 0.00 | 0.00 | 71 | 1010.2 |
| 20260903045403 | 81 | 131 | 1.0 | 6.0 | 0.00 | 0.00 | 0.00 | 71 | 1010.2 |
| 20260903044524 | 81 | 129 | 2.0 | 6.0 | 0.00 | 0.00 | 0.00 | 71 | 1010.1 |
| 20260903043603 | 82 | 132 | 1.0 | 6.0 | 0.00 | 0.00 | 0.00 | 70 | 1010.1 |
| 20260903042703 | 82 | 134 | 2.0 | 6.0 | 0.00 | 0.00 | 0.00 | 70 | 1010.1 |
| 20260903041804 | 82 | 142 | 1.0 | 4.0 | 0.00 | 0.00 | 0.00 | 69 | 1010.1 |
| 20260903040904 | 83 | 145 | 1.0 | 4.0 | 0.00 | 0.00 | 0.00 | 69 | 1010.0 |
| 20260903040003 | 83 | 132 | 1.0 | 4.0 | 0.00 | 0.00 | 0.00 | 68 | 1009.9 |
| 20260903035403 | 83 | 133 | 2.0 | 5.0 | 0.00 | 0.00 | 0.00 | 68 | 1010.0 |
| 20260903034504 | 84 | 141 | 0.0 | 2.0 | 0.00 | 0.00 | 0.00 | 68 | 1010.0 |
| 20260903033603 | 84 | 142 | 1.0 | 5.0 | 0.00 | 0.00 | 0.00 | 68 | 1010.0 |
| 20260903032703 | 84 | 147 | 2.0 | 6.0 | 0.00 | 0.00 | 0.00 | 67 | 1009.9 |
| 20260903031803 | 85 | 156 | 3.0 | 7.0 | 0.00 | 0.00 | 0.00 | 66 | 1009.9 |
| 20260903030903 | 85 | 157 | 2.0 | 6.0 | 0.00 | 0.00 | 0.00 | 65 | 1009.9 |
| 20260903030004 | 86 | 146 | 2.0 | 6.0 | 0.00 | 0.00 | 0.00 | 65 | 1009.8 |
| 20260903025403 | 86 | 148 | 2.0 | 7.0 | 0.00 | 0.00 | 0.00 | 64 | 1009.6 |
| 20260903024503 | 86 | 144 | 2.0 | 7.0 | 0.00 | 0.00 | 0.00 | 63 | 1009.5 |
| 20260903023603 | 86 | 143 | 3.0 | 9.0 | 0.00 | 0.00 | 0.00 | 63 | 1009.3 |
| 20260903022703 | 87 | 145 | 3.0 | 6.0 | 0.00 | 0.00 | 0.00 | 62 | 1009.2 |
| 20260903021803 | 87 | 143 | 3.0 | 8.0 | 0.00 | 0.00 | 0.00 | 61 | 1009.0 |
| 20260903020903 | 88 | 135 | 2.0 | 11.0 | 0.00 | 0.00 | 0.00 | 60 | 1008.9 |
| 20260903020024 | 88 | 136 | 2.0 | 7.0 | 0.00 | 0.00 | 0.00 | 59 | 1008.8 |